QPF
0.00 0.01 0.01 0.02 0.02 0.02 0.01 0.00 0.00 0.00 0.00 0.00 0.00 0.00 0.00 0.00 0.00 0.00 0.00 0.00 0.00 0.00 0.00 0.00 0.00 0.00 0.00 0.00 0.00 0.00 0.00 0.00 0.00 0.00 0.00 0.00 0.00 0.00 0.00 0.00 0.00 0.00 0.00 0.00 0.00 0.00 0.00 0.00 0.00
0.00 0.00 0.01 0.01 0.01 0.01 0.01 0.00 0.00 0.00 0.00 0.00 0.00 0.00 0.00 0.00 0.00 0.00 0.00 0.00 0.00 0.00 0.00 0.00 0.00 0.00 0.00 0.00 0.00 0.00 0.00 0.00 0.00 0.00 0.00 0.00 0.00 0.00 0.00 0.00 0.00 0.00 0.00 0.00 0.00 0.00 0.00 0.00 0.00
0.01 0.00 0.00 0.01 0.01 0.01 0.01 0.00 0.00 0.00 0.00 0.00 0.00 0.00 0.00 0.00 0.00 0.00 0.00 0.00 0.00 0.00 0.00 0.00 0.00 0.00 0.00 0.00 0.00 0.00 0.00 0.00 0.00 0.00 0.00 0.00 0.00 0.00 0.00 0.00 0.00 0.00 0.00 0.00 0.00 0.00 0.00 0.00 0.00
0.00 0.01 0.00 0.01 0.00 0.00 0.00 0.00 0.00 0.00 0.00 0.00 0.00 0.00 0.00 0.00 0.00 0.00 0.00 0.00 0.00 0.00 0.00 0.00 0.00 0.00 0.00 0.00 0.00 0.00 0.00 0.00 0.00 0.00 0.00 0.00 0.00 0.00 0.00 0.00 0.00 0.00 0.00 0.00 0.00 0.00 0.00 0.00 0.00
0.00 0.00 0.00 0.00 0.00 0.00 0.00 0.00 0.00 0.00 0.00 0.00 0.00 0.00 0.00 0.00 0.00 0.00 0.00 0.00 0.00 0.00 0.00 0.00 0.00 0.00 0.00 0.00 0.00 0.00 0.00 0.00 0.00 0.00 0.00 0.00 0.00 0.00 0.00 0.00 0.00 0.00 0.00 0.00 0.00 0.00 0.00 0.00 0.00
0.00 0.00 0.00 0.00 0.00 0.00 0.00 0.00 0.00 0.00 0.00 0.00 0.00 0.00 0.00 0.00 0.00 0.00 0.00 0.00 0.00 0.00 0.00 0.00 0.00 0.00 0.00 0.00 0.00 0.00 0.00 0.00 0.00 0.00 0.00 0.00 0.00 0.00 0.00 0.00 0.00 0.00 0.00 0.00 0.00 0.00 0.00 0.00 0.00
0.00 0.00 0.00 0.00 0.00 0.00 0.00 0.00 0.00 0.00 0.00 0.00 0.00 0.00 0.00 0.00 0.00 0.00 0.00 0.00 0.00 0.00 0.00 0.00 0.00 0.00 0.00 0.00 0.00 0.00 0.00 0.00 0.00 0.00 0.00 0.00 0.00 0.00 0.00 0.00 0.00 0.00 0.00 0.00 0.00 0.00 0.00 0.00 0.00
0.00 0.00 0.00 0.00 0.00 0.00 0.00 0.00 0.00 0.00 0.00 0.00 0.00 0.00 0.00 0.00 0.00 0.00 0.00 0.00 0.00 0.00 0.00 0.00 0.00 0.00 0.00 0.00 0.00 0.00 0.00 0.00 0.00 0.00 0.00 0.00 0.00 0.00 0.00 0.00 0.00 0.00 0.01 0.01 0.01 0.01 0.01 0.01 0.01
0.00 0.00 0.00 0.00 0.00 0.00 0.00 0.00 0.00 0.00 0.00 0.00 0.00 0.00 0.00 0.00 0.00 0.00 0.00 0.00 0.00 0.00 0.00 0.00 0.00 0.00 0.00 0.00 0.00 0.00 0.00 0.00 0.00 0.00 0.00 0.00 0.00 0.00 0.00 0.00 0.01 0.03 0.04 0.05 0.05 0.06 0.04 0.04 0.02
0.00 0.00 0.00 0.00 0.00 0.00 0.00 0.00 0.00 0.00 0.00 0.00 0.00 0.00 0.00 0.00 0.00 0.00 0.00 0.00 0.00 0.00 0.00 0.00 0.00 0.00 0.00 0.00 0.00 0.00 0.00 0.00 0.00 0.01 0.01 0.01 0.01 0.01 0.01 0.02 0.03 0.06 0.09 0.11 0.14 0.16 0.13 0.09 0.05
0.00 0.00 0.00 0.00 0.00 0.00 0.00 0.00 0.00 0.00 0.00 0.00 0.00 0.00 0.00 0.00 0.00 0.00 0.00 0.00 0.00 0.01 0.01 0.00 0.00 0.00 0.01 0.01 0.01 0.01 0.01 0.01 0.02 0.03 0.02 0.01 0.02 0.02 0.03 0.03 0.04 0.08 0.12 0.12 0.18 0.20 0.13 0.10 0.10
0.00 0.00 0.00 0.00 0.00 0.00 0.00 0.00 0.00 0.00 0.00 0.00 0.00 0.00 0.00 0.00 0.00 0.00 0.00 0.00 0.01 0.01 0.02 0.02 0.01 0.02 0.05 0.05 0.04 0.03 0.02 0.02 0.03 0.04 0.04 0.04 0.05 0.06 0.06 0.06 0.07 0.08 0.07 0.11 0.14 0.15 0.16 0.16 0.15
0.00 0.00 0.00 0.00 0.00 0.00 0.00 0.00 0.00 0.00 0.00 0.00 0.00 0.00 0.00 0.00 0.00 0.00 0.00 0.01 0.02 0.03 0.05 0.05 0.05 0.05 0.05 0.05 0.08 0.07 0.05 0.05 0.07 0.07 0.08 0.10 0.10 0.12 0.10 0.09 0.09 0.09 0.08 0.09 0.14 0.15 0.18 0.19 0.19
0.00 0.00 0.00 0.00 0.00 0.00 0.00 0.00 0.00 0.00 0.00 0.00 0.00 0.00 0.00 0.00 0.00 0.00 0.01 0.02 0.03 0.06 0.09 0.09 0.09 0.08 0.10 0.12 0.12 0.12 0.14 0.14 0.15 0.17 0.19 0.19 0.19 0.18 0.14 0.11 0.10 0.11 0.10 0.11 0.12 0.12 0.14 0.16 0.18
0.00 0.00 0.00 0.00 0.00 0.00 0.00 0.00 0.00 0.00 0.00 0.00 0.00 0.00 0.00 0.00 0.00 0.01 0.01 0.03 0.05 0.09 0.12 0.14 0.21 0.28 0.29 0.29 0.28 0.29 0.33 0.34 0.27 0.27 0.30 0.30 0.25 0.18 0.13 0.11 0.10 0.09 0.08 0.08 0.08 0.11 0.16 0.17 0.15
0.00 0.00 0.00 0.00 0.00 0.00 0.00 0.00 0.00 0.00 0.00 0.00 0.00 0.00 0.00 0.00 0.01 0.02 0.03 0.05 0.08 0.12 0.15 0.20 0.32 0.44 0.53 0.52 0.46 0.47 0.51 0.47 0.43 0.40 0.38 0.41 0.33 0.19 0.13 0.10 0.08 0.06 0.06 0.09 0.09 0.09 0.08 0.07 0.08
0.00 0.00 0.00 0.00 0.00 0.00 0.00 0.00 0.00 0.00 0.00 0.00 0.00 0.01 0.01 0.02 0.03 0.05 0.06 0.09 0.12 0.16 0.22 0.32 0.42 0.48 0.58 0.69 0.65 0.60 0.58 0.49 0.44 0.44 0.37 0.36 0.31 0.18 0.14 0.11 0.08 0.05 0.04 0.04 0.04 0.03 0.03 0.03 0.03
0.00 0.00 0.00 0.00 0.00 0.00 0.00 0.00 0.00 0.00 0.00 0.00 0.01 0.01 0.02 0.04 0.06 0.11 0.16 0.20 0.20 0.26 0.34 0.41 0.53 0.66 0.77 0.85 0.80 0.65 0.51 0.42 0.33 0.29 0.21 0.21 0.22 0.14 0.11 0.11 0.07 0.04 0.03 0.03 0.03 0.03 0.03 0.02 0.03
0.00 0.00 0.00 0.00 0.00 0.00 0.00 0.00 0.00 0.00 0.01 0.01 0.02 0.03 0.05 0.06 0.09 0.17 0.26 0.27 0.27 0.28 0.35 0.44 0.59 0.78 0.81 0.76 0.70 0.64 0.47 0.35 0.28 0.21 0.16 0.15 0.13 0.09 0.06 0.03 0.01 0.01 0.01 0.01 0.01 0.01 0.01 0.01 0.02
0.00 0.00 0.00 0.00 0.00 0.00 0.00 0.00 0.00 0.01 0.02 0.03 0.04 0.05 0.07 0.09 0.11 0.13 0.16 0.17 0.19 0.22 0.32 0.41 0.44 0.54 0.57 0.60 0.63 0.62 0.50 0.34 0.23 0.17 0.12 0.10 0.07 0.05 0.03 0.02 0.01 0.01 0.01 0.00 0.01 0.01 0.01 0.01 0.01
0.00 0.00 0.00 0.00 0.00 0.00 0.00 0.00 0.01 0.02 0.03 0.04 0.05 0.07 0.09 0.11 0.14 0.16 0.14 0.13 0.13 0.18 0.28 0.39 0.39 0.42 0.43 0.44 0.50 0.48 0.38 0.29 0.22 0.18 0.12 0.09 0.06 0.05 0.04 0.03 0.02 0.01 0.01 0.01 0.01 0.01 0.01 0.00 0.00
0.00 0.00 0.00 0.00 0.00 0.00 0.00 0.00 0.01 0.02 0.02 0.03 0.05 0.08 0.10 0.11 0.12 0.13 0.12 0.12 0.12 0.12 0.17 0.23 0.24 0.25 0.27 0.31 0.35 0.33 0.25 0.20 0.16 0.15 0.13 0.11 0.10 0.07 0.06 0.05 0.04 0.03 0.02 0.02 0.02 0.01 0.00 0.00 0.00
0.00 0.00 0.00 0.00 0.00 0.00 0.00 0.00 0.01 0.01 0.03 0.03 0.04 0.07 0.08 0.09 0.09 0.11 0.11 0.11 0.10 0.10 0.12 0.13 0.13 0.15 0.17 0.20 0.21 0.22 0.21 0.17 0.16 0.15 0.13 0.12 0.12 0.12 0.11 0.09 0.08 0.06 0.05 0.04 0.04 0.03 0.02 0.01 0.00
0.00 0.00 0.00 0.00 0.00 0.00 0.00 0.00 0.01 0.01 0.02 0.02 0.04 0.06 0.08 0.09 0.09 0.10 0.11 0.11 0.09 0.09 0.10 0.09 0.09 0.10 0.11 0.11 0.11 0.11 0.11 0.11 0.10 0.10 0.11 0.10 0.10 0.11 0.10 0.08 0.07 0.07 0.06 0.06 0.05 0.04 0.03 0.02 0.01
0.00 0.00 0.00 0.00 0.00 0.00 0.00 0.01 0.02 0.01 0.01 0.03 0.04 0.05 0.07 0.08 0.09 0.09 0.08 0.07 0.06 0.07 0.06 0.06 0.05 0.05 0.05 0.05 0.06 0.07 0.06 0.06 0.06 0.07 0.08 0.08 0.07 0.06 0.05 0.06 0.06 0.06 0.06 0.05 0.04 0.04 0.03 0.03 0.02
0.01 0.01 0.01 0.01 0.00 0.00 0.01 0.02 0.02 0.01 0.02 0.03 0.04 0.04 0.03 0.04 0.04 0.04 0.03 0.03 0.02 0.02 0.02 0.02 0.02 0.01 0.01 0.02 0.02 0.03 0.03 0.04 0.04 0.04 0.04 0.04 0.04 0.04 0.03 0.04 0.04 0.04 0.04 0.04 0.04 0.04 0.04 0.03 0.02
0.01 0.02 0.02 0.01 0.01 0.01 0.02 0.02 0.02 0.02 0.03 0.03 0.03 0.03 0.02 0.02 0.02 0.02 0.02 0.02 0.01 0.01 0.01 0.00 0.00 0.00 0.00 0.00 0.01 0.03 0.03 0.02 0.02 0.02 0.02 0.02 0.01 0.01 0.02 0.02 0.03 0.03 0.04 0.04 0.03 0.03 0.03 0.03 0.02
0.01 0.01 0.01 0.02 0.01 0.02 0.03 0.05 0.05 0.05 0.05 0.04 0.03 0.02 0.02 0.01 0.01 0.01 0.01 0.00 0.00 0.00 0.00 0.00 0.00 0.00 0.00 0.00 0.00 0.00 0.00 0.00 0.00 0.00 0.00 0.00 0.00 0.00 0.00 0.00 0.01 0.01 0.02 0.02 0.03 0.03 0.03 0.02 0.02
0.01 0.01 0.01 0.02 0.03 0.03 0.02 0.04 0.06 0.06 0.05 0.04 0.03 0.02 0.02 0.01 0.01 0.01 0.00 0.00 0.00 0.00 0.00 0.00 0.00 0.00 0.00 0.00 0.00 0.00 0.00 0.00 0.00 0.00 0.00 0.00 0.00 0.00 0.00 0.00 0.00 0.00 0.00 0.01 0.02 0.02 0.02 0.02 0.02
0.01 0.01 0.01 0.02 0.03 0.03 0.03 0.03 0.03 0.03 0.03 0.02 0.01 0.01 0.01 0.01 0.00 0.00 0.00 0.00 0.00 0.00 0.00 0.00 0.00 0.00 0.00 0.00 0.00 0.00 0.00 0.00 0.00 0.00 0.00 0.00 0.00 0.00 0.00 0.00 0.00 0.00 0.00 0.00 0.00 0.01 0.02 0.02 0.01
MSLP
1010.05 1011.09 1012.12 1012.96 1013.48 1013.58 1013.28 1012.62 1011.74 1010.81 1009.99 1009.38 1009.03 1008.91 1008.92 1008.95 1008.91 1008.72 1008.39 1007.99 1007.61 1007.37 1007.37 1007.63 1008.15 1008.82 1009.55 1010.21 1010.73 1011.07 1011.26 1011.36 1011.45 1011.61 1011.89 1012.27 1012.71 1013.16 1013.55 1013.82 1013.97 1014.02 1014.02 1014.02 1014.07 1014.18 1014.35 1014.56 1014.76
1010.39 1011.48 1012.48 1013.22 1013.56 1013.45 1012.89 1011.98 1010.88 1009.78 1008.83 1008.15 1007.77 1007.65 1007.70 1007.81 1007.85 1007.78 1007.59 1007.34 1007.12 1007.05 1007.19 1007.58 1008.20 1008.94 1009.70 1010.39 1010.93 1011.30 1011.52 1011.66 1011.79 1011.99 1012.27 1012.64 1013.05 1013.44 1013.77 1013.98 1014.09 1014.11 1014.11 1014.12 1014.19 1014.32 1014.51 1014.72 1014.91
1010.85 1011.96 1012.90 1013.50 1013.66 1013.33 1012.56 1011.46 1010.20 1008.99 1007.98 1007.27 1006.89 1006.79 1006.88 1007.04 1007.16 1007.17 1007.09 1006.97 1006.89 1006.95 1007.21 1007.68 1008.35 1009.12 1009.89 1010.58 1011.13 1011.51 1011.76 1011.93 1012.09 1012.31 1012.59 1012.93 1013.29 1013.62 1013.87 1014.02 1014.09 1014.10 1014.10 1014.13 1014.23 1014.40 1014.61 1014.83 1015.01
1011.41 1012.49 1013.33 1013.79 1013.76 1013.25 1012.32 1011.09 1009.76 1008.51 1007.50 1006.81 1006.46 1006.39 1006.51 1006.70 1006.86 1006.94 1006.93 1006.89 1006.91 1007.05 1007.37 1007.89 1008.56 1009.32 1010.07 1010.73 1011.25 1011.63 1011.90 1012.10 1012.28 1012.51 1012.78 1013.09 1013.40 1013.66 1013.85 1013.95 1013.98 1013.98 1014.00 1014.07 1014.21 1014.41 1014.65 1014.88 1015.07
1011.99 1013.00 1013.71 1014.00 1013.81 1013.15 1012.11 1010.84 1009.50 1008.29 1007.33 1006.70 1006.40 1006.37 1006.52 1006.72 1006.89 1007.00 1007.03 1007.04 1007.10 1007.28 1007.63 1008.14 1008.78 1009.48 1010.17 1010.77 1011.26 1011.63 1011.90 1012.12 1012.33 1012.57 1012.83 1013.11 1013.38 1013.58 1013.72 1013.78 1013.80 1013.81 1013.86 1013.96 1014.15 1014.39 1014.65 1014.90 1015.10
1012.48 1013.37 1013.92 1014.04 1013.70 1012.93 1011.84 1010.57 1009.30 1008.18 1007.33 1006.79 1006.56 1006.57 1006.73 1006.93 1007.11 1007.21 1007.26 1007.30 1007.38 1007.57 1007.90 1008.37 1008.94 1009.56 1010.17 1010.70 1011.14 1011.48 1011.76 1011.99 1012.23 1012.49 1012.76 1013.03 1013.27 1013.44 1013.54 1013.58 1013.60 1013.62 1013.69 1013.84 1014.05 1014.32 1014.61 1014.87 1015.07
1012.77 1013.49 1013.85 1013.79 1013.31 1012.47 1011.37 1010.16 1009.00 1008.02 1007.30 1006.87 1006.72 1006.77 1006.95 1007.15 1007.32 1007.42 1007.49 1007.54 1007.64 1007.83 1008.14 1008.55 1009.05 1009.57 1010.08 1010.54 1010.92 1011.23 1011.51 1011.78 1012.05 1012.34 1012.63 1012.90 1013.12 1013.28 1013.37 1013.40 1013.41 1013.44 1013.53 1013.70 1013.93 1014.21 1014.51 1014.76 1014.97
1012.77 1013.29 1013.45 1013.22 1012.62 1011.73 1010.66 1009.55 1008.52 1007.69 1007.12 1006.81 1006.73 1006.82 1007.01 1007.21 1007.39 1007.52 1007.61 1007.70 1007.83 1008.03 1008.33 1008.70 1009.12 1009.55 1009.97 1010.34 1010.67 1010.96 1011.24 1011.53 1011.84 1012.17 1012.49 1012.78 1013.01 1013.15 1013.23 1013.25 1013.26 1013.29 1013.38 1013.55 1013.78 1014.05 1014.33 1014.57 1014.76
1012.47 1012.79 1012.75 1012.36 1011.67 1010.76 1009.75 1008.76 1007.88 1007.20 1006.76 1006.55 1006.54 1006.66 1006.87 1007.08 1007.29 1007.45 1007.60 1007.76 1007.95 1008.20 1008.50 1008.84 1009.20 1009.56 1009.89 1010.19 1010.46 1010.73 1011.01 1011.33 1011.67 1012.04 1012.39 1012.70 1012.93 1013.08 1013.15 1013.16 1013.15 1013.16 1013.23 1013.37 1013.57 1013.81 1014.06 1014.28 1014.45
1011.95 1012.07 1011.85 1011.34 1010.60 1009.71 1008.78 1007.91 1007.17 1006.63 1006.31 1006.18 1006.21 1006.36 1006.57 1006.81 1007.05 1007.28 1007.52 1007.78 1008.06 1008.37 1008.70 1009.03 1009.36 1009.65 1009.90 1010.13 1010.35 1010.58 1010.86 1011.18 1011.55 1011.94 1012.32 1012.65 1012.89 1013.04 1013.10 1013.09 1013.05 1013.03 1013.06 1013.16 1013.31 1013.50 1013.70 1013.88 1014.02
1011.34 1011.29 1010.94 1010.35 1009.60 1008.76 1007.94 1007.20 1006.60 1006.18 1005.94 1005.85 1005.90 1006.04 1006.26 1006.51 1006.80 1007.11 1007.45 1007.81 1008.20 1008.59 1008.96 1009.31 1009.60 1009.83 1010.02 1010.17 1010.32 1010.51 1010.76 1011.07 1011.45 1011.85 1012.24 1012.58 1012.83 1012.97 1013.02 1012.99 1012.93 1012.87 1012.85 1012.89 1012.99 1013.12 1013.27 1013.41 1013.53
1010.78 1010.61 1010.19 1009.58 1008.87 1008.13 1007.44 1006.84 1006.37 1006.04 1005.84 1005.77 1005.79 1005.91 1006.10 1006.35 1006.67 1007.05 1007.48 1007.95 1008.43 1008.89 1009.31 1009.65 1009.91 1010.08 1010.19 1010.26 1010.33 1010.46 1010.65 1010.94 1011.29 1011.68 1012.07 1012.41 1012.66 1012.81 1012.86 1012.82 1012.74 1012.66 1012.60 1012.59 1012.63 1012.72 1012.82 1012.93 1013.02
1010.42 1010.18 1009.74 1009.18 1008.56 1007.96 1007.42 1006.96 1006.60 1006.34 1006.16 1006.06 1006.04 1006.09 1006.23 1006.45 1006.77 1007.19 1007.68 1008.21 1008.75 1009.26 1009.69 1010.02 1010.23 1010.32 1010.34 1010.31 1010.29 1010.33 1010.46 1010.68 1010.99 1011.36 1011.73 1012.07 1012.33 1012.49 1012.55 1012.53 1012.46 1012.37 1012.30 1012.27 1012.28 1012.33 1012.40 1012.49 1012.56
1010.33 1010.07 1009.67 1009.21 1008.73 1008.30 1007.92 1007.61 1007.35 1007.14 1006.96 1006.81 1006.70 1006.66 1006.71 1006.86 1007.15 1007.55 1008.05 1008.60 1009.15 1009.65 1010.05 1010.33 1010.46 1010.46 1010.37 1010.24 1010.12 1010.06 1010.10 1010.25 1010.50 1010.82 1011.17 1011.50 1011.78 1011.98 1012.09 1012.11 1012.09 1012.03 1011.98 1011.96 1011.97 1012.01 1012.08 1012.15 1012.22
1010.48 1010.25 1009.93 1009.60 1009.29 1009.04 1008.84 1008.67 1008.51 1008.33 1008.13 1007.91 1007.71 1007.55 1007.49 1007.55 1007.76 1008.10 1008.55 1009.05 1009.56 1010.00 1010.32 1010.51 1010.54 1010.43 1010.23 1009.99 1009.77 1009.61 1009.55 1009.62 1009.81 1010.08 1010.41 1010.75 1011.06 1011.31 1011.49 1011.60 1011.65 1011.67 1011.68 1011.69 1011.73 1011.79 1011.87 1011.95 1012.03
1010.78 1010.60 1010.39 1010.21 1010.09 1010.02 1010.00 1009.96 1009.89 1009.73 1009.50 1009.21 1008.91 1008.64 1008.46 1008.41 1008.51 1008.76 1009.11 1009.52 1009.92 1010.25 1010.46 1010.53 1010.44 1010.22 1009.92 1009.58 1009.26 1009.01 1008.88 1008.87 1008.99 1009.22 1009.53 1009.88 1010.23 1010.55 1010.82 1011.03 1011.20 1011.32 1011.41 1011.50 1011.59 1011.69 1011.80 1011.90 1011.98
1011.09 1010.98 1010.88 1010.86 1010.92 1011.04 1011.17 1011.26 1011.26 1011.12 1010.86 1010.51 1010.12 1009.75 1009.46 1009.30 1009.29 1009.42 1009.65 1009.93 1010.20 1010.39 1010.47 1010.41 1010.20 1009.89 1009.49 1009.08 1008.69 1008.38 1008.18 1008.11 1008.19 1008.38 1008.67 1009.03 1009.42 1009.81 1010.18 1010.50 1010.78 1011.01 1011.21 1011.38 1011.54 1011.68 1011.82 1011.95 1012.05
1011.30 1011.25 1011.28 1011.41 1011.64 1011.92 1012.19 1012.38 1012.43 1012.31 1012.03 1011.63 1011.17 1010.72 1010.36 1010.11 1010.00 1010.03 1010.14 1010.28 1010.40 1010.45 1010.39 1010.21 1009.91 1009.51 1009.06 1008.60 1008.19 1007.85 1007.61 1007.51 1007.54 1007.70 1007.97 1008.33 1008.75 1009.19 1009.64 1010.06 1010.44 1010.78 1011.07 1011.31 1011.53 1011.72 1011.89 1012.04 1012.16
1011.30 1011.33 1011.48 1011.76 1012.15 1012.57 1012.95 1013.21 1013.30 1013.18 1012.89 1012.45 1011.95 1011.47 1011.06 1010.76 1010.59 1010.53 1010.54 1010.57 1010.57 1010.49 1010.31 1010.03 1009.65 1009.21 1008.74 1008.29 1007.88 1007.54 1007.30 1007.19 1007.19 1007.32 1007.57 1007.91 1008.33 1008.79 1009.28 1009.76 1010.21 1010.61 1010.96 1011.26 1011.52 1011.74 1011.93 1012.11 1012.25
1011.10 1011.23 1011.51 1011.93 1012.45 1012.99 1013.45 1013.76 1013.86 1013.73 1013.41 1012.96 1012.45 1011.96 1011.54 1011.23 1011.04 1010.94 1010.89 1010.84 1010.74 1010.57 1010.30 1009.95 1009.53 1009.09 1008.63 1008.21 1007.84 1007.55 1007.34 1007.22 1007.22 1007.32 1007.52 1007.82 1008.20 1008.65 1009.13 1009.62 1010.08 1010.50 1010.87 1011.19 1011.46 1011.69 1011.89 1012.08 1012.25
1010.76 1011.01 1011.43 1012.00 1012.64 1013.26 1013.77 1014.10 1014.19 1014.03 1013.69 1013.22 1012.70 1012.22 1011.83 1011.55 1011.38 1011.28 1011.21 1011.11 1010.95 1010.72 1010.40 1010.02 1009.59 1009.16 1008.76 1008.40 1008.10 1007.87 1007.71 1007.62 1007.61 1007.67 1007.82 1008.06 1008.37 1008.75 1009.17 1009.61 1010.03 1010.42 1010.76 1011.06 1011.30 1011.52 1011.72 1011.92 1012.11
1010.42 1010.81 1011.39 1012.09 1012.84 1013.53 1014.07 1014.37 1014.42 1014.21 1013.82 1013.33 1012.81 1012.36 1012.00 1011.77 1011.64 1011.57 1011.50 1011.40 1011.22 1010.95 1010.60 1010.21 1009.80 1009.42 1009.08 1008.80 1008.59 1008.43 1008.33 1008.27 1008.26 1008.29 1008.38 1008.53 1008.75 1009.03 1009.35 1009.69 1010.02 1010.33 1010.61 1010.84 1011.05 1011.23 1011.42 1011.62 1011.83
1010.22 1010.77 1011.51 1012.35 1013.19 1013.92 1014.44 1014.70 1014.68 1014.39 1013.94 1013.41 1012.88 1012.44 1012.13 1011.95 1011.86 1011.83 1011.79 1011.68 1011.50 1011.21 1010.86 1010.47 1010.09 1009.75 1009.47 1009.28 1009.15 1009.08 1009.04 1009.02 1009.01 1009.01 1009.05 1009.11 1009.22 1009.38 1009.57 1009.79 1010.01 1010.22 1010.40 1010.56 1010.71 1010.85 1011.01 1011.20 1011.43
1010.27 1010.99 1011.88 1012.84 1013.75 1014.49 1014.98 1015.16 1015.04 1014.66 1014.13 1013.54 1012.99 1012.55 1012.26 1012.11 1012.07 1012.06 1012.04 1011.94 1011.75 1011.46 1011.10 1010.71 1010.35 1010.05 1009.83 1009.70 1009.65 1009.65 1009.67 1009.68 1009.69 1009.68 1009.66 1009.65 1009.66 1009.70 1009.77 1009.87 1009.97 1010.07 1010.16 1010.24 1010.32 1010.42 1010.55 1010.73 1010.97
1010.65 1011.51 1012.53 1013.57 1014.51 1015.23 1015.65 1015.74 1015.51 1015.03 1014.40 1013.75 1013.15 1012.70 1012.41 1012.28 1012.25 1012.25 1012.23 1012.13 1011.92 1011.62 1011.25 1010.86 1010.50 1010.22 1010.04 1009.95 1009.95 1010.01 1010.07 1010.13 1010.15 1010.13 1010.09 1010.02 1009.96 1009.91 1009.88 1009.88 1009.88 1009.89 1009.90 1009.91 1009.94 1009.99 1010.10 1010.26 1010.49
1011.32 1012.30 1013.39 1014.47 1015.40 1016.07 1016.40 1016.39 1016.05 1015.46 1014.75 1014.02 1013.38 1012.90 1012.60 1012.45 1012.41 1012.40 1012.36 1012.23 1012.00 1011.67 1011.27 1010.86 1010.50 1010.21 1010.04 1009.98 1010.00 1010.09 1010.19 1010.27 1010.31 1010.30 1010.24 1010.15 1010.05 1009.96 1009.87 1009.80 1009.74 1009.69 1009.65 1009.61 1009.60 1009.63 1009.70 1009.84 1010.04
1012.24 1013.27 1014.37 1015.42 1016.29 1016.88 1017.11 1016.99 1016.55 1015.88 1015.10 1014.32 1013.65 1013.13 1012.80 1012.62 1012.55 1012.50 1012.42 1012.26 1011.98 1011.61 1011.18 1010.74 1010.35 1010.04 1009.85 1009.78 1009.80 1009.88 1009.99 1010.08 1010.14 1010.14 1010.10 1010.02 1009.92 1009.81 1009.71 1009.62 1009.54 1009.47 1009.41 1009.37 1009.34 1009.34 1009.39 1009.49 1009.65
1013.26 1014.28 1015.33 1016.30 1017.07 1017.54 1017.67 1017.45 1016.94 1016.22 1015.41 1014.61 1013.92 1013.38 1013.02 1012.81 1012.69 1012.59 1012.45 1012.23 1011.91 1011.49 1011.02 1010.54 1010.10 1009.76 1009.53 1009.41 1009.40 1009.45 1009.54 1009.63 1009.69 1009.71 1009.69 1009.64 1009.56 1009.49 1009.41 1009.35 1009.29 1009.24 1009.20 1009.16 1009.13 1009.13 1009.14 1009.20 1009.30
1014.28 1015.22 1016.16 1016.99 1017.62 1017.96 1017.98 1017.69 1017.15 1016.42 1015.62 1014.84 1014.17 1013.64 1013.26 1013.01 1012.84 1012.68 1012.48 1012.20 1011.82 1011.36 1010.84 1010.32 1009.84 1009.44 1009.15 1008.97 1008.89 1008.89 1008.93 1008.98 1009.03 1009.06 1009.06 1009.05 1009.03 1009.00 1008.99 1008.98 1008.97 1008.97 1008.97 1008.96 1008.95 1008.94 1008.93 1008.94 1008.97
1015.19 1016.00 1016.78 1017.44 1017.90 1018.11 1018.04 1017.71 1017.17 1016.48 1015.74 1015.02 1014.40 1013.89 1013.51 1013.24 1013.02 1012.80 1012.54 1012.20 1011.77 1011.26 1010.71 1010.14 1009.62 1009.16 1008.80 1008.54 1008.37 1008.28 1008.25 1008.25 1008.26 1008.28 1008.30 1008.33 1008.36 1008.40 1008.45 1008.51 1008.57 1008.63 1008.68 1008.71 1008.72 1008.72 1008.70 1008.67 1008.63
Thickness
5830 5826 5822 5810 5793 5782 5786 5804 5819 5826 5833 5844 5847 5843 5835 5828 5819 5818 5842 5851 5848 5841 5834 5828 5822 5817 5811 5807 5802 5798 5795 5792 5789 5786 5784 5782 5780 5778 5776 5774 5772 5770 5769 5767 5765 5764 5762 5761 5760
5829 5825 5815 5801 5786 5776 5791 5815 5821 5831 5841 5849 5849 5845 5837 5835 5840 5838 5841 5846 5845 5840 5833 5827 5822 5816 5811 5806 5801 5797 5793 5790 5787 5784 5782 5780 5778 5776 5774 5772 5770 5769 5767 5766 5764 5763 5761 5760 5758
5828 5824 5806 5794 5786 5785 5801 5823 5829 5840 5849 5848 5843 5843 5839 5836 5841 5840 5844 5845 5841 5836 5831 5826 5820 5815 5810 5804 5800 5795 5792 5788 5785 5782 5780 5778 5776 5774 5772 5771 5769 5767 5766 5764 5763 5761 5760 5759 5757
5825 5812 5802 5789 5789 5805 5817 5831 5838 5839 5845 5848 5842 5835 5841 5849 5847 5847 5847 5843 5837 5832 5828 5824 5819 5813 5808 5803 5798 5794 5790 5787 5784 5781 5779 5776 5774 5772 5770 5769 5767 5765 5764 5762 5761 5760 5759 5757 5756
5820 5805 5791 5782 5793 5814 5829 5838 5842 5837 5839 5843 5840 5831 5834 5846 5851 5848 5845 5841 5835 5829 5825 5821 5817 5811 5806 5801 5797 5793 5789 5786 5782 5779 5777 5774 5772 5770 5768 5766 5764 5763 5761 5760 5759 5758 5756 5755 5754
5807 5797 5781 5778 5796 5817 5832 5840 5840 5838 5839 5842 5839 5831 5833 5844 5844 5843 5842 5838 5834 5828 5823 5819 5814 5809 5805 5800 5796 5792 5788 5784 5780 5777 5774 5772 5769 5767 5765 5763 5762 5761 5759 5757 5756 5755 5754 5753 5751
5801 5789 5783 5789 5795 5809 5829 5840 5837 5835 5836 5840 5844 5830 5833 5838 5842 5841 5838 5834 5830 5825 5820 5816 5812 5807 5803 5798 5793 5789 5785 5781 5778 5774 5771 5768 5767 5765 5763 5761 5759 5758 5757 5755 5753 5752 5751 5750 5749
5809 5791 5788 5787 5794 5805 5830 5836 5840 5838 5838 5852 5849 5831 5829 5838 5842 5837 5833 5828 5825 5821 5817 5814 5810 5805 5801 5796 5791 5786 5782 5779 5775 5772 5769 5766 5764 5762 5760 5758 5756 5755 5754 5752 5751 5750 5749 5748 5747
5811 5783 5776 5789 5798 5810 5828 5829 5838 5848 5844 5846 5850 5846 5847 5846 5839 5831 5824 5820 5817 5815 5813 5810 5807 5803 5798 5793 5789 5784 5780 5777 5773 5770 5767 5764 5762 5760 5757 5756 5754 5752 5751 5750 5749 5748 5747 5746 5745
5797 5776 5788 5805 5813 5817 5825 5827 5833 5835 5832 5835 5841 5845 5847 5841 5834 5826 5820 5815 5812 5811 5809 5807 5803 5798 5794 5789 5785 5781 5778 5775 5771 5767 5764 5762 5759 5757 5754 5752 5751 5750 5749 5748 5747 5746 5746 5745 5744
5795 5788 5802 5812 5819 5821 5821 5826 5833 5826 5821 5831 5835 5836 5837 5834 5828 5823 5818 5815 5812 5809 5806 5803 5798 5793 5788 5784 5780 5776 5773 5770 5766 5763 5760 5758 5755 5753 5751 5749 5748 5747 5747 5746 5745 5744 5744 5743 5742
5794 5800 5807 5813 5821 5819 5820 5823 5823 5823 5829 5845 5845 5840 5834 5828 5823 5819 5815 5812 5810 5805 5801 5798 5795 5790 5784 5779 5775 5772 5769 5765 5762 5759 5757 5754 5751 5749 5747 5746 5745 5744 5743 5743 5742 5743 5742 5742 5741
5792 5798 5808 5814 5814 5815 5818 5816 5817 5821 5835 5841 5839 5832 5827 5823 5820 5818 5815 5809 5803 5798 5794 5791 5787 5783 5779 5774 5771 5768 5764 5761 5759 5756 5753 5750 5748 5745 5744 5742 5741 5740 5740 5739 5739 5740 5740 5739 5739
5794 5796 5799 5806 5811 5814 5810 5809 5808 5814 5827 5827 5824 5820 5819 5816 5812 5808 5804 5800 5796 5792 5788 5785 5781 5776 5772 5767 5762 5762 5758 5755 5752 5750 5748 5746 5745 5743 5741 5740 5739 5738 5737 5737 5736 5737 5736 5736 5736
5792 5786 5790 5801 5805 5807 5805 5790 5792 5805 5814 5812 5811 5810 5806 5803 5803 5800 5799 5796 5792 5788 5784 5779 5775 5770 5765 5760 5756 5754 5749 5746 5745 5744 5742 5741 5740 5740 5738 5735 5734 5734 5734 5734 5733 5733 5732 5731 5732
5782 5771 5767 5785 5792 5797 5788 5765 5780 5796 5801 5796 5797 5797 5793 5791 5791 5791 5791 5789 5787 5783 5778 5774 5770 5763 5758 5754 5749 5747 5743 5740 5740 5739 5737 5736 5734 5734 5732 5731 5731 5731 5729 5729 5729 5728 5727 5727 5726
5757 5749 5755 5768 5782 5783 5771 5755 5767 5782 5785 5780 5781 5782 5780 5778 5778 5778 5779 5778 5776 5773 5771 5765 5761 5756 5752 5747 5744 5741 5738 5735 5734 5732 5733 5732 5730 5730 5729 5728 5728 5727 5725 5724 5724 5724 5723 5722 5722
5747 5749 5752 5756 5768 5767 5755 5748 5758 5767 5771 5768 5769 5769 5768 5766 5764 5766 5767 5766 5764 5762 5761 5758 5752 5748 5744 5739 5737 5733 5731 5728 5727 5726 5727 5726 5725 5727 5726 5724 5723 5723 5720 5719 5719 5718 5718 5718 5718
5757 5751 5746 5755 5765 5754 5743 5741 5746 5753 5756 5756 5756 5757 5756 5755 5757 5758 5757 5756 5754 5750 5747 5745 5742 5740 5737 5731 5727 5724 5720 5720 5720 5723 5723 5722 5722 5724 5722 5720 5718 5718 5716 5714 5714 5713 5712 5712 5714
5754 5747 5747 5753 5760 5750 5738 5735 5739 5743 5742 5743 5744 5744 5744 5745 5746 5745 5744 5743 5740 5738 5736 5735 5732 5730 5729 5725 5720 5717 5714 5714 5715 5714 5715 5716 5718 5718 5717 5715 5714 5713 5712 5710 5708 5708 5707 5708 5709
5754 5750 5751 5748 5751 5746 5738 5726 5728 5732 5734 5735 5734 5734 5734 5735 5732 5731 5729 5729 5727 5726 5725 5725 5722 5720 5719 5717 5714 5710 5708 5706 5705 5704 5706 5709 5712 5712 5711 5711 5710 5709 5707 5705 5705 5704 5703 5702 5703
5749 5764 5760 5752 5736 5723 5729 5707 5716 5718 5719 5721 5722 5722 5721 5721 5721 5719 5716 5716 5715 5714 5714 5714 5713 5711 5710 5709 5705 5700 5697 5696 5696 5697 5700 5702 5703 5704 5704 5704 5704 5703 5702 5701 5701 5701 5699 5698 5697
5760 5762 5754 5745 5732 5717 5716 5704 5704 5710 5707 5709 5710 5711 5710 5709 5709 5707 5706 5705 5704 5704 5702 5702 5702 5701 5699 5699 5697 5694 5690 5689 5689 5691 5692 5694 5695 5695 5695 5696 5695 5695 5695 5695 5696 5696 5695 5694 5694
5764 5752 5739 5725 5715 5702 5706 5701 5696 5700 5702 5703 5704 5704 5703 5701 5700 5697 5696 5695 5694 5694 5692 5690 5689 5688 5688 5688 5686 5684 5681 5680 5679 5680 5680 5682 5683 5684 5685 5686 5686 5687 5688 5688 5689 5690 5690 5689 5689
5751 5729 5704 5700 5688 5692 5703 5697 5693 5703 5704 5701 5698 5697 5696 5694 5692 5689 5687 5685 5684 5683 5682 5681 5679 5677 5676 5674 5673 5672 5671 5670 5670 5670 5670 5670 5671 5671 5673 5674 5676 5677 5679 5681 5682 5682 5682 5683 5683
5742 5728 5699 5687 5682 5687 5695 5689 5693 5702 5701 5699 5695 5692 5690 5687 5685 5682 5680 5678 5676 5674 5673 5670 5667 5665 5663 5662 5661 5660 5659 5658 5658 5658 5658 5658 5658 5660 5661 5662 5664 5666 5668 5671 5672 5673 5674 5676 5676
5738 5720 5717 5694 5689 5680 5683 5688 5692 5695 5692 5690 5687 5684 5681 5679 5677 5674 5673 5670 5668 5665 5662 5659 5655 5652 5650 5649 5648 5646 5645 5644 5643 5643 5643 5643 5644 5645 5647 5648 5650 5652 5655 5658 5660 5661 5663 5665 5667
5735 5720 5701 5688 5677 5670 5676 5675 5671 5677 5677 5678 5675 5673 5672 5670 5668 5665 5662 5659 5657 5654 5651 5647 5643 5639 5637 5635 5633 5632 5630 5629 5628 5627 5627 5628 5629 5630 5631 5633 5635 5638 5640 5643 5646 5649 5651 5653 5656
5718 5709 5691 5677 5675 5664 5657 5662 5674 5669 5668 5665 5665 5664 5662 5660 5657 5653 5650 5647 5644 5641 5637 5633 5629 5625 5622 5620 5618 5615 5614 5613 5612 5612 5613 5613 5613 5614 5615 5617 5619 5622 5625 5627 5630 5634 5637 5641 5644
5713 5700 5690 5678 5668 5659 5651 5654 5671 5666 5663 5659 5656 5654 5652 5648 5645 5641 5637 5634 5629 5625 5622 5618 5614 5611 5608 5605 5602 5600 5598 5596 5595 5595 5596 5597 5597 5598 5598 5600 5602 5604 5608 5610 5613 5617 5622 5626 5631